This is the latest recevied weather packets stored in our database for station/object KI6SYE. If no packets are shown the sender has not sent any weather packets the latest 10 day(s).
| Time | Temp. | Humidity | Pressure | Rain* | Wind** | Luminosity | Snow |
|---|---|---|---|---|---|---|---|
| 1777344382 | 15.56° C | 73% | 1016.3 hPa | 0 mm | - | 1 W/m² | - |
| 1777344080 | 15.56° C | 74% | 1016.3 hPa | 0 mm | - | 1 W/m² | - |
| 1777343777 | 15.56° C | 75% | 1016.2 hPa | 0 mm | - | 2 W/m² | - |
| 1777343474 | 15.56° C | 76% | 1016 hPa | 0 mm | - | 4 W/m² | - |
| 1777343172 | 15.56° C | 75% | 1016.2 hPa | 0 mm | - | 7 W/m² | - |
| 1777342869 | 16.11° C | 74% | 1016.1 hPa | 0 mm | - | 11 W/m² | - |
| 1777342566 | 16.11° C | 75% | 1015.8 hPa | 0 mm | - | 15 W/m² | - |
| 1777342263 | 16.11° C | 75% | 1016 hPa | 0 mm | - | 19 W/m² | - |
| 1777341959 | 16.11° C | 73% | 1015.9 hPa | 0 mm | - | 23 W/m² | - |
| 1777341656 | 16.67° C | 71% | 1016 hPa | 0 mm | - | 28 W/m² | - |
| 1777341352 | 16.11° C | 71% | 1015.9 hPa | 0 mm | - | 33 W/m² | - |
| 1777341049 | 16.67° C | 72% | 1016 hPa | 0 mm | - | 40 W/m² | - |
| 1777340746 | 16.67° C | 72% | 1016.1 hPa | 0 mm | - | 45 W/m² | - |
| 1777340444 | 16.67° C | 73% | 1016 hPa | 0 mm | - | 51 W/m² | - |
| 1777340141 | 16.67° C | 70% | 1016 hPa | 0 mm | - | 49 W/m² | - |
| 1777339838 | 16.67° C | 71% | 1016.1 hPa | 0 mm | - | 44 W/m² | - |
| 1777339536 | 16.67° C | 72% | 1016.2 hPa | 0 mm | - | 46 W/m² | - |
| 1777339233 | 16.67° C | 73% | 1016.1 hPa | 0 mm | - | 48 W/m² | - |
| 1777338931 | 16.67° C | 73% | 1015.8 hPa | 0 mm | - | 54 W/m² | - |
| 1777338626 | 16.67° C | 72% | 1016.3 hPa | 0 mm | - | 53 W/m² | - |
| 1777338325 | 16.67° C | 71% | 1016 hPa | 0 mm | - | 54 W/m² | - |
| 1777338016 | 16.67° C | 69% | 1015.9 hPa | 0 mm | - | 67 W/m² | - |
| 1777337712 | 16.67° C | 71% | 1015.9 hPa | 0 mm | - | 97 W/m² | - |
| 1777337409 | 16.67° C | 71% | 1015.8 hPa | 0 mm | - | 66 W/m² | - |
| 1777337106 | 17.22° C | 69% | 1016.1 hPa | 0 mm | - | 149 W/m² | - |
* Rain latest hour (hover to see other rain measurements)
** Current wind speed in m/s (hover to see current wind gust speed)